Weather History for KDSV - February, 2014

Change the Weather History Date:

Sunday, February 9, 2014

  Actual Average Record
Temperature  
Mean Temperature 12 °F -  
Max Temperature 23 °F 32 °F 66 °F (2001)
Min Temperature 1 °F 11 °F -7 °F (1967)
Degree Days  
Heating Degree Days 53    
Moisture  
Dew Point 11 °F    
Average Humidity 83    
Maximum Humidity 93    
Minimum Humidity 68    
Precipitation  
Precipitation 0.02 in - - ()
Sea Level Pressure  
Sea Level Pressure 30.06 in    
Wind  
Wind Speed 3 mph (South)    
Max Wind Speed 8 mph    
Max Gust Speed -    
Visibility 4 miles    
Events Fog , Snow    
Averages and records for this station are not official NWS values.
T = Trace of Precipitation, MM = Missing Value Source: NWS Daily Summary

Daily Weather History Graph

Daily Weather History Graph

Search for Another Location

Airport or City:

Trip Planner

Search our weather history database for the weather conditions in past years. The results will help you decide how hot, cold, wet, or windy it might be!

Date:

Astronomy

Feb. 09, 2014 Rise Set
Actual Time 7:15 AM EST 5:35 PM EST
Civil Twilight 6:46 AM EST 6:04 PM EST
Nautical Twilight 6:13 AM EST 6:37 PM EST
Astronomical Twilight 5:40 AM EST 7:10 PM EST
Moon 1:11 PM EST (2/9) 3:21 AM EST (2/9)
Length of Visible Light 11h 18m
Length of Day
10h 19m
Waxing Gibbous, 77% of the Moon is Illuminated
Feb 9
Waxing Gibbous
Feb 14
Full
Feb 22
Last Quarter
Mar 1
New
Mar 8
First Quarter

Hourly Weather History & Observations

Time (EST) Temp. Windchill Dew Point Humidity Pressure Visibility Wind Dir Wind Speed Gust Speed Precip Events Conditions
12:40 AM 8.6 °F 2.0 °F 5.0 °F 85% 30.18 in 2.0 mi SSE 3.5 mph - 0.00 in Snow Light Snow
12:44 AM 10.4 °F 4.0 °F 5.0 °F 79% 30.18 in 1.8 mi SSE 3.5 mph - 0.00 in Snow Light Snow
12:54 AM 9.0 °F - 6.1 °F 88% 30.25 in 1.8 mi Calm Calm - 0.00 in Snow Light Snow
1:03 AM 10.4 °F - 5.0 °F 79% 30.18 in 2.0 mi Calm Calm - 0.00 in Snow Light Snow
1:17 AM 10.4 °F - 5.0 °F 79% 30.18 in 4.0 mi Calm Calm - 0.00 in Snow Light Snow
1:54 AM 9.0 °F 2.4 °F 5.0 °F 84% 30.25 in 2.0 mi SE 3.5 mph - 0.00 in Snow Light Snow
2:06 AM 8.6 °F 2.0 °F 3.2 °F 79% 30.18 in 3.0 mi SSE 3.5 mph - 0.00 in Snow Light Snow
2:54 AM 7.0 °F -1.7 °F 3.0 °F 84% 30.25 in 6.0 mi SSE 4.6 mph - 0.00 in   Mostly Cloudy
3:54 AM 5.0 °F - 1.0 °F 84% 30.23 in 8.0 mi Calm Calm - N/A   Clear
4:54 AM 3.9 °F -5.3 °F -0.0 °F 84% 30.23 in 9.0 mi SE 4.6 mph - N/A   Clear
5:54 AM 1.0 °F -8.7 °F -2.9 °F 83% 30.22 in 10.0 mi SSE 4.6 mph - N/A   Clear
6:54 AM 3.9 °F -8.2 °F -0.9 °F 80% 30.20 in 10.0 mi SE 6.9 mph - N/A   Overcast
7:54 AM 7.0 °F -3.3 °F 1.0 °F 77% 30.19 in 9.0 mi SE 5.8 mph - N/A   Overcast
8:54 AM 9.0 °F -0.9 °F 3.0 °F 77% 30.19 in 9.0 mi SE 5.8 mph - N/A   Overcast
9:54 AM 12.9 °F 2.6 °F 7.0 °F 77% 30.17 in 8.0 mi South 6.9 mph - N/A   Overcast
10:54 AM 17.1 °F 10.0 °F 10.0 °F 74% 30.12 in 3.0 mi South 4.6 mph - 0.00 in Snow Light Snow
11:17 AM 17.6 °F 12.3 °F 12.2 °F 79% 30.03 in 2.5 mi South 3.5 mph - 0.00 in Snow Light Snow
11:29 AM 17.6 °F 10.7 °F 12.2 °F 79% 30.03 in 1.5 mi South 4.6 mph - 0.00 in Snow Light Snow
11:41 AM 17.6 °F 12.3 °F 12.2 °F 79% 30.02 in 1.8 mi South 3.5 mph - 0.00 in Snow Light Snow
11:47 AM 19.4 °F 14.3 °F 12.2 °F 74% 30.01 in 2.0 mi South 3.5 mph - 0.00 in Snow Light Snow
11:54 AM 19.0 °F 13.9 °F 14.0 °F 81% 30.07 in 1.8 mi South 3.5 mph - 0.00 in Snow Light Snow
12:54 PM 19.9 °F - 17.1 °F 89% 30.02 in 1.0 mi Calm Calm - 0.00 in Snow Light Snow
1:05 PM 19.4 °F - 15.8 °F 86% 29.94 in 0.8 mi Calm Calm - 0.00 in Snow Light Snow
1:18 PM 21.2 °F 12.6 °F 15.8 °F 80% 29.93 in 1.0 mi SSE 6.9 mph - 0.00 in Snow Light Snow
1:54 PM 21.0 °F 13.4 °F 16.0 °F 81% 29.99 in 1.0 mi ESE 5.8 mph - 0.00 in Snow Light Snow
2:05 PM 21.2 °F 11.7 °F 17.6 °F 86% 29.92 in 0.8 mi SE 8.1 mph - 0.00 in Snow Light Snow
2:54 PM 21.9 °F 15.7 °F 18.0 °F 85% 29.97 in 0.5 mi SE 4.6 mph - 0.00 in Fog , Snow Light Snow
3:17 PM 21.2 °F - 17.6 °F 86% 29.91 in 1.0 mi Calm Calm - 0.00 in Snow Light Snow
3:32 PM 23.0 °F - 19.4 °F 86% 29.91 in 0.8 mi Calm Calm - 0.00 in Snow Light Snow
3:42 PM 21.2 °F - 19.4 °F 93% 29.91 in 0.5 mi Calm Calm - 0.01 in Fog , Snow Snow
3:54 PM 21.9 °F - 19.0 °F 89% 29.98 in 0.5 mi Calm Calm - 0.01 in Fog , Snow Snow
4:26 PM 19.4 °F 11.5 °F 17.6 °F 93% 29.91 in 0.8 mi NW 5.8 mph - 0.00 in Snow Light Snow
4:54 PM 19.9 °F 12.1 °F 17.1 °F 89% 29.99 in 0.8 mi NNW 5.8 mph - 0.00 in Snow Light Snow
5:02 PM 19.4 °F 12.8 °F 17.6 °F 93% 29.92 in 1.0 mi NNW 4.6 mph - 0.00 in Snow Light Snow
5:43 PM 19.4 °F - 17.6 °F 93% 29.92 in 2.5 mi Calm Calm - 0.01 in Snow Light Snow
5:51 PM 19.4 °F - 17.6 °F 93% 29.92 in 4.0 mi Calm Calm - 0.01 in Snow Light Snow
5:54 PM 19.0 °F - 17.1 °F 92% 30.00 in 4.0 mi Calm Calm - 0.01 in Snow Light Snow
6:20 PM 19.4 °F 12.8 °F 15.8 °F 86% 29.94 in 2.5 mi NW 4.6 mph - 0.00 in Snow Light Snow
6:54 PM 19.0 °F 9.0 °F 16.0 °F 88% 30.03 in 1.8 mi NNW 8.1 mph - 0.00 in Snow Light Snow
7:30 PM 19.4 °F 12.8 °F 17.6 °F 93% 29.97 in 2.0 mi NNW 4.6 mph - 0.00 in Snow Light Snow
7:43 PM 19.4 °F 12.8 °F 15.8 °F 86% 29.98 in 1.5 mi NW 4.6 mph - 0.00 in Snow Light Snow
7:54 PM 19.0 °F 13.9 °F 17.1 °F 92% 30.05 in 2.5 mi NW 3.5 mph - 0.00 in Snow Light Snow
8:02 PM 19.4 °F 11.5 °F 15.8 °F 86% 29.98 in 3.0 mi NW 5.8 mph - 0.00 in Snow Light Snow
8:16 PM 17.6 °F 10.7 °F 15.8 °F 93% 29.99 in 6.0 mi WNW 4.6 mph - 0.00 in   Overcast
8:54 PM 18.0 °F 7.7 °F 10.0 °F 71% 30.08 in 10.0 mi WNW 8.1 mph - 0.00 in   Mostly Cloudy
9:54 PM 18.0 °F 7.7 °F 9.0 °F 68% 30.09 in 10.0 mi West 8.1 mph - N/A   Overcast
10:54 PM 16.0 °F 8.8 °F 8.1 °F 71% 30.12 in 10.0 mi NW 4.6 mph - N/A   Overcast
11:54 PM 14.0 °F 5.1 °F 7.0 °F 74% 30.13 in 10.0 mi NNE 5.8 mph - N/A   Overcast